Location: Unspecified
(0.0000°N, 0.0000°E)
Time: 10:09:50
(UTC+02:00)

GP-B - Visible Passes

Search period start: 20 October 2014 00:00
Search period end: 29 October 2014 23:00
Orbit: 634 x 639 km, 89.9° (Epoch: 18 October)

Date Brightness Start Highest point End Pass type
(mag) Time Alt. Az. Time Alt. Az. Time Alt. Az.
20 Oct 4.1 20:33:56 10° NE 20:37:32 24° E 20:41:08 10° SSE visible
20 Oct 6.1 22:12:34 10° WNW 22:14:37 13° W 22:16:40 10° WSW visible
21 Oct 3.1 20:55:47 10° NNE 21:00:08 59° E 21:04:31 10° S visible
22 Oct 3.7 21:18:25 10° N 21:22:45 55° W 21:27:07 10° SSW visible
23 Oct 4.8 20:05:59 10° ENE 20:08:18 14° E 20:10:37 10° SE visible
23 Oct 5.4 21:41:53 10° NW 21:45:22 23° W 21:48:52 10° SW visible
24 Oct 3.8 20:26:55 10° NNE 20:30:54 33° E 20:34:53 10° SSE visible
25 Oct 3.0 20:49:04 10° N 20:53:30 82° E 20:57:58 10° S visible
26 Oct 4.4 20:11:59 10° NNW 20:16:07 40° W 20:20:18 10° SSW visible
27 Oct 5.9 20:35:52 10° NW 20:38:44 17° W 20:41:37 10° SW visible
28 Oct 3.4 19:20:02 10° NNE 19:24:16 45° E 19:28:31 10° SSE visible
29 Oct 3.3 19:42:27 10° N 19:46:52 73° W 19:51:19 10° S visible
